This is the latest recevied weather packets stored in our database for station/object KC0QBU-13. If no packets are shown the sender has not sent any weather packets the latest 10 day(s).
| Time | Temp. | Humidity | Pressure | Rain* | Wind** | Luminosity | Snow |
|---|---|---|---|---|---|---|---|
| 1777504878 | 15° C | 48% | 1018.5 hPa | 0 mm | - | - | - |
| 1777504548 | 15° C | 47% | 1018.5 hPa | 0 mm | - | - | - |
| 1777504248 | 15.56° C | 48% | 1018.5 hPa | 0 mm | - | - | - |
| 1777503948 | 15.56° C | 48% | 1018.4 hPa | 0 mm | - | - | - |
| 1777503618 | 15.56° C | 48% | 1018.4 hPa | 0 mm | - | - | - |
| 1777503318 | 15.56° C | 49% | 1018.4 hPa | 0 mm | - | - | - |
| 1777502988 | 15.56° C | 49% | 1018.5 hPa | 0 mm | - | - | - |
| 1777502688 | 15.56° C | 49% | 1018.5 hPa | 0 mm | - | - | - |
| 1777502358 | 15.56° C | 51% | 1018.5 hPa | 0 mm | - | - | - |
| 1777502058 | 15.56° C | 51% | 1018.5 hPa | 0 mm | - | - | - |
| 1777501758 | 15.56° C | 51% | 1018.5 hPa | 0 mm | - | - | - |
| 1777501428 | 15.56° C | 49% | 1018.6 hPa | 0 mm | - | - | - |
| 1777501128 | 15.56° C | 49% | 1018.5 hPa | 0 mm | - | - | - |
| 1777500828 | 15.56° C | 48% | 1018.5 hPa | 0 mm | - | - | - |
| 1777500528 | 15.56° C | 49% | 1018.5 hPa | 0 mm | - | - | - |
| 1777500228 | 15.56° C | 51% | 1018.6 hPa | 0 mm | - | - | - |
| 1777499898 | 15.56° C | 51% | 1018.6 hPa | 0 mm | - | - | - |
| 1777499568 | 15° C | 48% | 1018.5 hPa | 0 mm | - | - | - |
| 1777499268 | 15° C | 49% | 1018.6 hPa | 0 mm | - | - | - |
| 1777498938 | 15° C | 47% | 1018.7 hPa | 0 mm | - | - | - |
| 1777498608 | 15° C | 49% | 1018.7 hPa | 0 mm | - | - | - |
| 1777498308 | 15.56° C | 47% | 1018.8 hPa | 0 mm | - | - | - |
| 1777497978 | 15.56° C | 46% | 1018.7 hPa | 0 mm | - | - | - |
| 1777497648 | 15.56° C | 46% | 1018.9 hPa | 0 mm | - | - | - |
| 1777497348 | 15.56° C | 49% | 1018.9 hPa | 0 mm | - | - | - |
* Rain latest hour (hover to see other rain measurements)
** Current wind speed in m/s (hover to see current wind gust speed)